• In Netherlands
  • List of Countries
  • For 7 days
  • Water Temperature
  • Satellite Maps
  • Weather Map
  • Weather Widgets
  • user-avatar
    Login

    Hourly Weather Brisbane

    Today, 21 September, Thursday

    Time Temperature Precipitation Wind Pressure Humidity
    00:00 +20°C° 0 mm 1 mps 762 mmHg 82%
    01:00 +20°C° 0 mm 1 mps 762 mmHg 81%
    02:00 +19°C° 0 mm 1 mps 762 mmHg 82%
    03:00 +19°C° 0 mm 1 mps 762 mmHg 83%
    04:00 +19°C° 0 mm 1 mps 762 mmHg 84%
    05:00 +20°C° 0 mm 1 mps 762 mmHg 82%
    06:00 +20°C° 0 mm 1 mps 762 mmHg 81%
    07:00 +21°C° 0 mm 1 mps 763 mmHg 79%
    08:00 +21°C° 0 mm 2 mps 763 mmHg 72%
    09:00 +23°C° 0 mm 2 mps 763 mmHg 65%
    10:00 +25°C° 0 mm 2 mps 762 mmHg 57%
    11:00 +26°C° 0 mm 2 mps 762 mmHg 55%
    12:00 +27°C° 0 mm 3 mps 761 mmHg 53%
    13:00 +28°C° 0 mm 3 mps 761 mmHg 50%
    14:00 +27°C° 0 mm 4 mps 760 mmHg 52%
    15:00 +27°C° 0 mm 4 mps 760 mmHg 54%
    16:00 +26°C° 0 mm 5 mps 759 mmHg 57%
    17:00 +25°C° 0 mm 4 mps 760 mmHg 65%
    18:00 +22°C° 0 mm 4 mps 760 mmHg 74%
    19:00 +20°C° 0 mm 4 mps 761 mmHg 83%
    20:00 +20°C° 0 mm 4 mps 761 mmHg 85%
    21:00 +20°C° 0 mm 3 mps 761 mmHg 87%
    22:00 +20°C° 0 mm 3 mps 762 mmHg 87%
    23:00 +20°C° 0 mm 3 mps 762 mmHg 88%

    Tomorrow, 22 September, Friday

    Time Temperature Precipitation Wind Pressure Humidity
    00:00 +20°C° 0 mm 3 mps 762 mmHg 89%
    01:00 +20°C° 0 mm 3 mps 762 mmHg 90%
    02:00 +20°C° 0 mm 3 mps 762 mmHg 91%
    03:00 +19°C° 0 mm 2 mps 761 mmHg 92%
    04:00 +19°C° 0 mm 2 mps 761 mmHg 93%
    05:00 +19°C° 0 mm 2 mps 762 mmHg 90%
    06:00 +20°C° 0 mm 3 mps 762 mmHg 87%
    07:00 +20°C° 0 mm 3 mps 762 mmHg 84%
    08:00 +24°C° 0 mm 3 mps 762 mmHg 72%
    09:00 +26°C° 0 mm 3 mps 762 mmHg 61%
    10:00 +28°C° 0 mm 3 mps 762 mmHg 49%
    11:00 +30°C° 0 mm 4 mps 761 mmHg 44%
    12:00 +32°C° 0 mm 4 mps 760 mmHg 39%
    13:00 +33°C° 0 mm 5 mps 760 mmHg 34%
    14:00 +30°C° 0.2 mm 5 mps 759 mmHg 43%
    15:00 +29°C° 0.2 mm 5 mps 759 mmHg 52%
    16:00 +27°C° 0.2 mm 5 mps 759 mmHg 61%
    17:00 +25°C° 1.6 mm 5 mps 759 mmHg 68%
    18:00 +23°C° 1.6 mm 5 mps 759 mmHg 75%
    19:00 +21°C° 1.6 mm 5 mps 760 mmHg 82%
    20:00 +21°C° 0 mm 5 mps 760 mmHg 83%
    21:00 +21°C° 0 mm 5 mps 761 mmHg 84%
    22:00 +20°C° 0 mm 5 mps 761 mmHg 85%
    23:00 +20°C° 0 mm 5 mps 761 mmHg 86%

    Day after tomorrow, 23 September, Saturday

    Time Temperature Precipitation Wind Pressure Humidity
    00:00 +20°C° 0 mm 5 mps 761 mmHg 87%
    01:00 +19°C° 0 mm 4 mps 760 mmHg 88%
    02:00 +19°C° 0 mm 4 mps 760 mmHg 89%
    03:00 +19°C° 0 mm 3 mps 760 mmHg 90%
    04:00 +18°C° 0 mm 3 mps 760 mmHg 90%
    05:00 +19°C° 0 mm 3 mps 761 mmHg 86%
    06:00 +20°C° 0 mm 3 mps 761 mmHg 82%
    07:00 +20°C° 0 mm 3 mps 761 mmHg 78%
    08:00 +24°C° 0 mm 3 mps 761 mmHg 65%
    09:00 +27°C° 0 mm 4 mps 761 mmHg 52%
    10:00 +30°C° 0 mm 4 mps 760 mmHg 39%
    11:00 +33°C° 0 mm 4 mps 760 mmHg 34%
    12:00 +34°C° 0 mm 5 mps 759 mmHg 30%
    13:00 +36°C° 0 mm 5 mps 758 mmHg 25%
    14:00 +36°C° 0 mm 5 mps 758 mmHg 27%
    15:00 +35°C° 0 mm 6 mps 757 mmHg 29%
    16:00 +34°C° 0 mm 6 mps 757 mmHg 32%
    17:00 +32°C° 0 mm 6 mps 757 mmHg 39%
    18:00 +29°C° 0 mm 6 mps 758 mmHg 46%
    19:00 +27°C° 0 mm 6 mps 758 mmHg 53%
    20:00 +26°C° 0 mm 6 mps 758 mmHg 55%
    21:00 +25°C° 0 mm 5 mps 759 mmHg 57%
    22:00 +25°C° 0 mm 5 mps 759 mmHg 59%
    23:00 +23°C° 0 mm 5 mps 759 mmHg 59%

    24 September, Sunday

    Time Temperature Precipitation Wind Pressure Humidity
    00:00 +23°C° 0 mm 4 mps 758 mmHg 59%
    01:00 +22°C° 0 mm 4 mps 758 mmHg 59%
    02:00 +22°C° 0 mm 4 mps 758 mmHg 59%
    03:00 +21°C° 0 mm 4 mps 758 mmHg 59%
    04:00 +21°C° 0 mm 4 mps 758 mmHg 59%
    05:00 +22°C° 0 mm 4 mps 758 mmHg 55%
    06:00 +23°C° 0 mm 4 mps 758 mmHg 52%
    07:00 +25°C° 0 mm 5 mps 759 mmHg 48%
    08:00 +28°C° 0 mm 5 mps 759 mmHg 40%
    09:00 +32°C° 0 mm 5 mps 758 mmHg 32%
    10:00 +35°C° 0 mm 6 mps 758 mmHg 23%
    11:00 +38°C° 0 mm 6 mps 758 mmHg 21%
    12:00 +39°C° 0 mm 6 mps 757 mmHg 18%
    13:00 +41°C° 0 mm 6 mps 756 mmHg 15%
    14:00 +40°C° 0 mm 7 mps 756 mmHg 17%
    15:00 +39°C° 0 mm 7 mps 755 mmHg 18%
    16:00 +39°C° 0 mm 7 mps 755 mmHg 20%
    17:00 +36°C° 0 mm 7 mps 755 mmHg 24%
    18:00 +34°C° 0 mm 7 mps 756 mmHg 28%
    19:00 +32°C° 0 mm 7 mps 757 mmHg 33%
    20:00 +30°C° 0 mm 6 mps 757 mmHg 35%
    21:00 +29°C° 0 mm 6 mps 757 mmHg 38%
    22:00 +28°C° 0 mm 6 mps 758 mmHg 41%
    23:00 +27°C° 0 mm 5 mps 758 mmHg 42%

    25 September, Monday

    Time Temperature Precipitation Wind Pressure Humidity
    00:00 +27°C° 0 mm 5 mps 757 mmHg 44%
    01:00 +26°C° 0 mm 4 mps 757 mmHg 45%
    02:00 +26°C° 0 mm 5 mps 757 mmHg 46%
    03:00 +26°C° 0 mm 5 mps 757 mmHg 46%
    04:00 +25°C° 0 mm 5 mps 757 mmHg 47%
    05:00 +26°C° 0 mm 5 mps 758 mmHg 45%
    06:00 +26°C° 0 mm 5 mps 758 mmHg 42%
    07:00 +27°C° 0 mm 5 mps 759 mmHg 40%
    08:00 +30°C° 0 mm 5 mps 759 mmHg 33%
    09:00 +33°C° 0 mm 5 mps 759 mmHg 25%
    10:00 +36°C° 0 mm 5 mps 759 mmHg 18%
    11:00 +37°C° 0 mm 5 mps 758 mmHg 17%
    12:00 +40°C° 0 mm 6 mps 757 mmHg 15%
    13:00 +41°C° 0 mm 6 mps 756 mmHg 14%
    14:00 +40°C° 0 mm 6 mps 756 mmHg 15%
    15:00 +40°C° 0 mm 7 mps 756 mmHg 16%
    16:00 +40°C° 0 mm 7 mps 755 mmHg 18%
    17:00 +38°C° 0 mm 7 mps 756 mmHg 22%
    18:00 +35°C° 0 mm 7 mps 756 mmHg 27%
    19:00 +32°C° 0 mm 7 mps 757 mmHg 31%
    20:00 +30°C° 0 mm 6 mps 758 mmHg 33%
    21:00 +29°C° 0 mm 6 mps 758 mmHg 36%
    22:00 +28°C° 0 mm 5 mps 759 mmHg 38%
    23:00 +27°C° 0 mm 4 mps 758 mmHg 41%

    26 September, Tuesday

    Time Temperature Precipitation Wind Pressure Humidity
    00:00 +26°C° 0 mm 4 mps 758 mmHg 44%
    01:00 +25°C° 0 mm 3 mps 758 mmHg 47%
    02:00 +24°C° 0 mm 3 mps 758 mmHg 48%
    03:00 +22°C° 0 mm 3 mps 758 mmHg 49%
    04:00 +22°C° 0 mm 3 mps 758 mmHg 49%
    05:00 +22°C° 0 mm 4 mps 758 mmHg 47%
    06:00 +23°C° 0 mm 4 mps 759 mmHg 44%
    07:00 +25°C° 0 mm 4 mps 759 mmHg 41%
    08:00 +28°C° 0 mm 4 mps 759 mmHg 34%
    09:00 +32°C° 0 mm 4 mps 759 mmHg 26%
    10:00 +35°C° 0 mm 4 mps 759 mmHg 19%
    11:00 +36°C° 0 mm 5 mps 758 mmHg 17%
    12:00 +39°C° 0 mm 5 mps 757 mmHg 16%
    13:00 +40°C° 0 mm 6 mps 756 mmHg 14%
    14:00 +40°C° 0 mm 6 mps 756 mmHg 16%
    15:00 +39°C° 0 mm 7 mps 755 mmHg 17%
    16:00 +39°C° 0 mm 7 mps 755 mmHg 18%
    17:00 +36°C° 0 mm 7 mps 755 mmHg 24%
    18:00 +33°C° 0 mm 7 mps 756 mmHg 29%
    19:00 +30°C° 0 mm 6 mps 756 mmHg 34%
    20:00 +29°C° 0 mm 6 mps 756 mmHg 37%
    21:00 +28°C° 0 mm 6 mps 756 mmHg 41%
    22:00 +28°C° 0 mm 6 mps 756 mmHg 44%
    23:00 +27°C° 0 mm 6 mps 756 mmHg 44%
    Show more